Flag for U.S.A. Weather past 2 weeks in Atascadero, California, U.S.A.

Now
48 °F

Clear.


Feels Like: 43 °F
Forecast: 42 / 70 °F
Wind: 10 mph from Northwest

Location: Paso Robles Municipal Airport

Current Time: Apr 1, 2015 at 3:23:07 AM

Latest Report: Apr 1, 2015 at 2:53 AM


Visibility: 10 mi

Pressure: 30.11 "Hg

Humidity: 74%

Dew point: 40 °F

Location of AtascaderoLocation

Historic Weather in Atascadero — Graph

°F

Atascadero temperature yesterday

Maximum temperature yesterday: 79 °F (at 3:53 PM)
Minimum temperature yesterday: 42 °F (at 6:53 AM)
Average temperature yesterday: 60 °F

Past Weeks' High & Low Weather Summary

 TemperatureHumidityPressure
High90 °F (Mar 27, 3:53 PM)93% (Mar 23, 3:53 AM)30.27 "Hg (Mar 23, 3:53 AM)
Low38 °F (Mar 21, 6:53 AM)10% (Mar 30, 3:53 PM)29.92 "Hg (Mar 30, 4:53 PM)
Average61 °F55%30.09 "Hg
* Reported Mar 17 1:53 AM — Apr 1 1:53 AM, Atascadero, Weather by CustomWeather, © 2015

Note: Actual official high and low records may vary slightly from our data, if they occured in-between our weather recording intervals... More about our weather records

Advertising

Atascadero weather history for previous 24 hours

 ConditionsComfort  
Time TempWeatherWind HumidityBarometerVisibility
1:53 AM
Wed, Apr 1
49 °FClear.9 mph71%30.12 "Hg10 mi
12:53 AM51 °FClear.14 mph69%30.12 "Hg10 mi
11:53 PM
Tue, Mar 31
52 °FClear.17 mph66%30.12 "Hg10 mi
10:53 PM53 °FClear.20 mph64%30.12 "Hg10 mi
9:53 PM55 °FClear.23 mph55%30.09 "Hg10 mi
8:53 PM57 °FClear.17 mph47%30.08 "Hg10 mi
7:53 PM61 °FSunny.20 mph39%30.04 "Hg10 mi
6:53 PM67 °FSunny.23 mph36%30.03 "Hg10 mi
5:53 PM72 °FSunny.22 mph34%30.01 "Hg10 mi
4:53 PM76 °FSunny.20 mph30%30.01 "Hg10 mi
3:53 PM79 °FSunny.18 mph25%30.01 "Hg10 mi
2:53 PM78 °FSunny.14 mph28%30.03 "Hg10 mi
1:53 PM76 °FSunny.10 mph31%30.06 "Hg10 mi
12:53 PM73 °FSunny.12 mph37%30.09 "Hg10 mi
11:53 AM70 °FSunny.14 mph42%30.11 "Hg10 mi
10:53 AM64 °FSunny.17 mph50%30.12 "Hg10 mi
9:53 AM59 °FSunny.13 mph58%30.12 "Hg10 mi
8:53 AM53 °FSunny.17 mph74%30.11 "Hg10 mi
7:53 AM50 °FSunny.12 mph80%30.09 "Hg10 mi
6:53 AM42 °FClear.3 mph82%30.07 "Hg10 mi
5:53 AM44 °FClear.5 mph79%30.05 "Hg10 mi
4:53 AM48 °FClear.No wind80%30.03 "Hg10 mi
3:53 AM50 °FClear.9 mph77%30.02 "Hg10 mi
Weather by CustomWeather, © 2015

See weather overviewHow to use our weather pages